Theta_e
294 295 295 296 296 296 296 296 295 295 295 295 295 295 295 295 294 294 294 293 293 293 292 292 292 291 291 291 290 289 289 288 287 287 287 286 286 286 286 286 286 286 286 286 286 286 286 286 287 287 287 286 286 286 285 285 285 284 285 284 284 284 284 284 285 285 282 281 281 281 281 281 281 281 281 281 281 281 280 280 280 280 280 281 281
294 294 294 295 295 295 296 296 295 295 295 295 295 295 295 294 294 294 294 293 293 292 292 292 292 291 291 291 290 289 288 288 288 287 286 286 286 286 286 285 285 285 285 286 286 286 286 285 286 286 286 285 285 285 285 284 284 284 284 284 283 283 283 283 283 283 282 281 281 281 281 281 281 281 281 281 281 281 281 281 281 281 280 280 281
294 294 293 294 294 295 295 295 295 295 294 294 294 294 294 294 294 294 293 293 293 292 292 292 292 291 291 290 290 289 289 288 288 287 286 286 286 285 285 285 285 285 285 285 285 285 285 285 285 285 285 284 284 284 284 284 283 283 283 283 283 282 283 282 282 282 281 280 280 280 281 280 281 281 281 281 281 281 281 282 281 281 281 281 282
294 294 294 293 293 293 294 294 295 294 294 294 294 294 294 294 294 293 293 293 292 292 292 291 291 291 290 290 290 289 289 289 288 287 287 286 286 285 285 285 285 285 285 285 285 285 285 285 284 284 284 283 283 283 283 283 283 283 282 282 282 282 282 281 281 281 281 280 279 279 280 280 280 280 279 279 280 280 280 281 281 281 281 281 282
292 293 293 293 293 293 293 293 293 294 294 294 294 294 294 294 293 293 293 292 292 292 291 291 291 290 290 290 290 289 289 289 288 287 287 286 286 285 285 285 284 285 285 285 285 285 285 285 284 284 283 283 283 283 283 282 282 282 281 281 281 281 280 280 280 280 280 279 278 278 278 278 278 278 278 278 279 279 279 280 280 280 280 280 280
291 291 292 293 293 293 292 292 292 292 293 293 293 294 294 294 293 293 293 292 292 292 291 291 290 290 290 290 290 289 289 288 288 288 287 286 286 285 285 285 284 284 284 284 284 285 285 285 285 284 284 283 283 283 283 282 282 281 281 281 281 280 280 279 279 278 278 278 277 277 276 277 277 278 278 278 277 278 278 279 279 279 279 279 278
290 290 290 291 292 292 292 292 292 292 292 292 293 293 293 293 293 293 293 292 292 291 291 291 290 290 290 290 289 289 289 288 288 287 287 286 286 286 285 285 284 284 284 284 284 284 285 285 284 284 284 284 284 284 283 282 281 281 281 281 280 279 278 278 277 277 277 276 276 276 276 276 277 277 278 278 277 278 278 278 278 278 278 278 278
289 289 289 290 290 290 291 292 292 292 291 291 292 292 292 292 292 293 293 292 292 292 291 291 290 290 290 289 289 289 288 288 288 287 287 286 286 285 285 285 284 284 284 283 283 283 284 284 284 284 285 285 285 285 284 283 282 281 281 280 280 279 278 277 276 276 276 276 276 276 276 277 277 277 278 278 278 278 278 278 278 278 278 278 277
289 289 288 288 289 289 290 291 292 292 292 291 291 291 291 292 292 292 292 292 292 292 291 291 290 290 290 289 289 288 288 288 288 287 287 286 286 285 285 285 284 284 283 283 283 283 283 283 283 284 284 285 285 285 285 285 284 283 281 280 279 278 277 277 276 275 275 275 276 276 277 277 278 278 278 278 278 278 278 278 278 278 278 278 277
289 288 288 287 288 288 289 289 290 291 292 292 291 291 291 291 291 291 291 292 292 291 291 291 290 289 289 289 288 288 288 288 288 287 287 287 286 285 285 285 284 284 283 283 283 282 282 282 282 282 283 283 283 283 283 284 284 284 284 282 281 279 277 276 276 275 275 276 276 277 278 278 278 278 278 278 278 278 278 278 278 277 278 278 278
288 288 288 287 287 287 287 288 289 290 291 291 292 291 291 290 290 290 291 291 291 291 291 290 290 289 289 288 288 288 288 288 287 287 287 287 286 286 285 285 284 284 283 283 283 282 282 281 281 281 281 282 282 282 282 282 283 283 283 284 283 282 280 278 276 275 275 276 277 278 278 278 278 278 278 278 278 278 278 277 277 278 278 278 279
288 288 288 287 286 286 287 287 287 288 289 290 291 291 291 290 290 290 290 290 290 291 290 290 290 289 289 288 288 288 288 288 287 287 287 286 286 286 285 285 284 284 283 283 283 282 281 281 281 280 280 280 281 281 281 281 281 281 281 282 281 281 281 281 280 278 276 276 277 278 278 278 278 278 278 278 278 278 277 277 277 278 278 278 278
287 287 287 287 286 286 286 286 286 287 287 288 289 291 291 290 290 289 289 289 290 290 290 289 289 289 288 288 288 288 288 287 287 287 286 286 286 286 286 285 284 284 283 283 282 282 281 281 280 280 280 280 280 280 280 280 280 280 280 280 280 280 280 280 280 280 279 278 277 278 278 278 278 278 278 278 278 277 277 278 278 278 278 278 278
287 287 287 287 286 286 286 286 286 286 286 287 287 289 290 290 290 289 289 288 289 289 289 289 289 289 288 288 288 288 288 287 287 287 286 286 286 286 286 285 284 284 283 282 282 281 281 280 280 279 279 279 279 279 279 279 279 279 278 278 278 279 279 278 278 278 279 278 278 278 278 278 278 278 278 277 277 277 278 278 278 278 278 278 277
286 287 287 286 286 286 286 286 286 286 286 286 286 287 288 289 290 290 288 288 288 288 288 288 288 288 288 288 287 287 287 287 287 286 286 286 286 286 286 285 284 284 283 282 282 281 281 280 280 279 279 279 279 279 279 279 279 279 278 278 278 278 278 277 277 277 277 278 278 278 278 278 278 277 277 277 278 278 278 278 278 278 277 276 276
286 286 286 286 285 285 285 285 286 285 285 285 286 286 286 287 289 289 288 288 287 287 287 288 288 287 288 287 287 287 287 286 286 286 286 286 286 286 286 285 284 283 282 282 281 281 281 280 280 279 279 279 279 279 279 279 279 279 279 278 278 277 277 277 278 278 278 279 279 279 279 278 278 277 277 278 279 278 278 278 277 276 275 274 274
285 285 285 286 285 284 285 285 285 285 285 285 285 286 286 286 287 288 288 288 287 287 287 287 287 287 287 287 286 286 286 286 286 286 285 285 286 287 286 285 284 283 282 281 281 280 280 280 279 279 279 279 279 278 278 279 279 279 278 278 278 277 277 278 279 280 280 280 280 279 279 278 277 278 278 279 279 278 277 277 276 275 273 272 272
284 285 285 285 284 284 284 285 285 285 285 285 285 285 285 285 286 287 287 287 287 287 286 286 286 286 286 286 286 286 286 286 285 285 285 285 286 287 286 285 284 283 282 281 280 280 279 279 279 279 278 278 278 279 279 279 279 279 278 278 278 278 278 278 279 279 280 280 279 279 278 278 278 279 279 279 278 277 276 275 274 273 271 271 271
283 284 284 284 283 283 283 284 284 284 284 284 284 284 284 284 285 285 286 286 286 286 286 285 285 285 285 285 285 285 285 285 285 284 285 285 286 286 286 285 284 282 281 280 280 279 279 278 278 278 278 278 278 279 280 279 278 278 278 278 278 278 278 278 278 279 279 278 278 278 278 278 278 278 278 277 276 275 274 273 273 271 271 270 270
283 283 283 283 282 282 282 283 283 283 283 284 284 284 284 284 284 284 285 286 286 285 285 284 284 284 284 284 284 284 284 284 284 284 284 285 286 286 286 285 283 282 281 280 279 278 278 278 278 278 278 277 278 280 281 279 278 278 278 278 278 278 278 277 277 278 278 277 277 278 278 278 277 277 276 275 274 274 273 272 271 271 270 270 269
282 282 281 281 281 280 281 281 282 282 282 283 283 283 283 283 283 284 284 285 285 284 284 284 283 283 284 284 283 283 283 283 283 283 284 285 286 286 286 285 283 282 281 280 279 278 277 277 277 278 278 277 278 280 281 280 279 278 278 278 278 278 278 277 276 276 276 276 277 277 276 276 275 274 274 273 273 272 272 271 271 270 270 269 269
281 281 280 280 280 280 280 280 280 280 281 282 283 282 282 282 282 283 283 284 284 284 284 283 283 282 282 282 282 282 282 282 282 282 283 284 286 286 286 285 284 282 281 279 279 278 277 277 277 278 279 278 279 280 282 282 279 278 278 278 278 278 277 276 276 276 276 276 276 275 275 275 274 273 273 272 272 272 271 271 271 270 269 269 269
279 279 279 279 279 278 279 279 279 279 280 281 281 280 280 281 281 282 282 283 283 283 283 283 282 281 281 281 281 281 281 281 281 282 282 283 285 286 286 285 284 282 281 280 279 278 277 277 277 278 279 279 279 280 282 282 280 278 278 277 277 277 277 276 276 276 276 275 275 275 274 274 273 273 273 272 271 271 271 271 271 269 269 269 269
278 278 278 278 277 277 277 277 277 278 278 278 278 278 279 280 281 281 282 282 282 281 282 282 281 281 281 281 281 281 280 280 280 281 281 282 283 285 286 285 284 283 281 280 279 278 278 277 277 278 280 280 280 281 282 282 281 279 278 278 277 278 277 276 275 276 275 275 275 274 273 273 274 273 272 271 271 271 270 270 270 269 268 268 268
276 276 276 276 276 276 276 276 276 276 276 276 276 277 278 279 280 281 281 281 281 281 281 281 281 280 280 281 281 281 280 280 280 280 280 281 282 284 285 285 284 283 281 280 279 278 278 277 278 279 280 281 281 281 282 283 281 279 278 278 278 278 277 276 275 275 275 275 274 273 272 273 273 272 271 270 271 270 270 269 270 269 269 268 268
275 275 275 274 274 274 274 274 274 274 274 274 274 275 276 278 279 280 281 281 281 281 281 281 281 280 280 280 280 280 280 279 279 279 279 280 281 282 284 285 285 283 282 280 279 278 278 278 278 279 280 281 281 281 282 282 281 279 279 279 279 278 278 276 275 275 275 274 273 272 273 273 272 270 270 270 270 270 269 269 270 270 269 268 268
273 273 272 272 272 272 272 272 272 272 272 272 273 274 275 277 278 280 280 280 281 281 281 281 281 281 280 280 280 280 279 279 278 278 278 279 280 281 283 285 285 283 281 280 279 278 278 278 278 279 280 281 281 281 281 282 282 280 279 279 279 278 277 277 276 275 274 274 273 273 273 271 270 270 270 270 270 270 269 269 269 269 268 268 267
270 270 270 270 270 270 270 270 270 271 271 271 272 273 274 276 277 279 279 280 280 281 281 281 281 281 281 281 281 280 279 278 278 278 278 278 279 280 281 283 285 283 281 279 279 278 278 279 279 279 280 281 281 280 280 281 281 280 279 279 278 278 277 276 276 275 274 274 273 272 271 270 269 270 270 270 270 270 269 268 268 268 267 267 266
267 268 268 268 268 268 268 269 269 269 270 270 271 272 273 274 276 277 278 279 280 280 280 281 281 281 281 281 281 280 279 279 279 280 280 279 279 280 281 282 284 283 281 279 279 278 278 279 279 279 280 280 279 278 279 279 279 278 278 278 277 276 276 275 275 274 274 273 271 270 270 269 270 269 269 269 270 269 268 268 267 267 267 266 267
265 265 266 266 266 267 267 268 268 268 269 270 270 271 272 273 274 276 277 278 279 280 281 281 281 281 281 282 282 282 281 281 281 281 280 279 279 280 280 282 283 282 280 279 279 278 278 278 278 279 279 278 277 277 277 276 275 275 275 275 275 275 275 275 275 274 272 271 270 270 270 270 269 269 269 269 269 268 268 267 267 266 266 266 267
263 264 264 264 265 265 266 266 267 267 267 268 269 270 270 271 272 273 274 276 277 279 280 281 282 282 282 282 282 282 282 282 282 281 280 280 280 280 281 282 283 282 280 279 278 278 278 278 278 278 278 277 276 276 275 275 274 272 272 272 272 273 274 274 273 272 270 270 269 269 269 269 269 269 269 269 268 268 267 267 266 266 266 266 267
262 262 263 263 263 264 264 264 265 265 266 266 267 268 269 269 270 271 272 274 276 278 279 281 282 282 283 283 283 282 282 282 281 281 281 280 281 281 281 282 283 282 280 280 278 277 278 278 277 277 277 276 276 276 275 274 273 271 270 269 268 270 272 273 272 270 270 269 269 269 269 269 269 269 268 268 267 267 266 266 266 266 266 266 267
261 262 262 262 262 263 263 263 264 264 265 265 266 266 267 268 269 269 270 272 274 276 278 280 281 282 282 283 283 283 283 282 282 281 281 281 281 281 281 282 283 282 281 280 278 278 278 277 277 277 276 276 276 275 274 273 272 270 270 269 268 269 271 271 270 269 269 269 269 269 269 269 268 268 268 267 266 265 265 265 265 265 266 266 267
261 261 261 262 262 262 263 263 263 264 264 265 265 265 266 267 267 268 269 270 271 273 275 277 280 281 282 283 283 283 283 283 282 282 281 281 281 281 281 282 282 282 281 280 278 278 277 277 277 276 275 275 275 274 273 273 271 270 270 269 269 269 269 269 269 269 269 268 268 269 268 268 268 267 267 266 265 264 264 265 265 265 266 266 267
261 261 261 262 262 262 263 263 263 264 264 265 265 266 266 267 268 269 270 271 272 273 274 275 277 279 280 282 282 283 284 283 282 282 281 281 281 281 282 282 282 282 281 280 278 278 277 276 276 275 275 274 274 273 272 272 271 270 269 269 268 269 269 268 268 269 268 268 268 268 268 268 267 267 267 266 265 264 264 265 265 265 266 267 267
261 261 261 262 262 262 263 263 263 264 264 265 265 266 266 267 268 268 269 270 272 274 275 276 276 277 279 280 281 282 283 283 283 282 281 281 281 282 282 282 282 282 281 280 279 277 277 276 275 274 274 274 273 272 272 271 271 270 270 270 269 269 268 268 268 268 268 268 268 268 268 268 267 267 266 266 265 265 265 265 265 265 266 267 267
261 261 261 262 262 262 262 263 263 264 264 265 265 266 266 267 267 267 268 269 270 272 275 277 278 278 278 279 280 281 282 283 283 282 281 281 281 282 282 282 282 282 281 280 278 277 276 275 275 274 273 273 272 271 271 270 270 270 270 270 270 269 269 269 269 269 268 268 268 268 268 268 267 267 266 266 265 265 265 265 265 266 267 267 268
261 261 262 262 262 263 263 263 264 264 265 265 266 266 267 267 268 268 269 270 270 271 273 276 278 278 278 278 279 280 281 282 283 282 282 281 281 281 281 281 281 282 281 279 277 276 275 275 274 273 273 272 271 270 270 270 269 269 269 269 269 269 269 269 268 268 268 268 268 268 268 268 267 267 266 266 266 265 265 265 266 266 267 268 268
261 262 262 262 263 263 264 264 264 265 265 265 266 266 267 267 268 268 269 270 271 272 273 275 277 278 278 278 279 279 280 282 282 282 281 281 281 281 281 281 281 281 281 278 276 275 275 274 273 272 272 271 270 270 269 269 269 269 269 269 268 268 268 268 268 268 268 268 268 268 268 268 268 267 267 266 266 266 266 266 266 267 267 268 268
261 261 262 262 262 263 263 263 263 264 264 265 265 266 267 267 268 268 269 269 270 272 274 276 277 278 278 278 278 279 280 281 281 281 280 280 280 281 281 281 281 281 279 277 275 275 274 273 272 271 271 270 270 269 269 269 269 269 269 269 268 268 268 268 268 268 268 268 268 268 268 268 268 267 267 267 267 266 266 266 266 267 267 267 268
261 262 262 262 262 263 263 263 264 264 265 266 266 266 267 268 268 269 269 270 271 272 273 275 276 277 277 278 278 279 280 280 280 280 280 280 280 280 280 281 281 279 277 275 274 273 272 271 271 271 270 270 269 269 269 269 270 269 269 268 268 268 268 268 268 268 268 268 268 268 268 268 268 268 268 268 267 266 266 266 266 267 267 267 267
262 262 262 262 262 263 263 263 264 264 264 265 266 267 267 268 269 270 270 271 272 272 274 275 275 276 277 277 278 279 279 280 280 280 280 279 279 279 280 280 280 278 276 274 273 272 271 271 271 271 270 269 269 269 270 270 270 269 269 268 268 268 268 268 267 268 268 268 268 268 268 268 268 268 268 267 266 266 266 266 266 266 267 267 267
262 262 262 262 262 262 263 263 263 263 263 264 265 266 267 268 269 270 271 271 272 272 274 275 276 276 276 277 278 279 279 280 279 279 279 279 279 279 279 279 278 276 274 273 272 272 272 272 271 271 271 271 271 271 271 271 270 269 269 268 268 268 268 267 267 267 268 268 268 268 268 268 268 268 268 267 266 266 266 266 266 266 267 267 267
262 263 263 263 263 263 263 263 263 263 263 264 264 265 266 266 267 268 270 271 273 273 274 275 276 276 276 277 277 278 279 279 279 279 279 278 278 277 277 276 274 273 272 272 272 272 273 273 272 271 271 271 271 271 271 271 270 269 269 268 268 267 267 268 268 268 268 268 268 268 268 268 268 268 268 267 267 266 265 266 266 266 267 267 267
263 263 264 264 263 263 263 263 263 263 263 263 264 264 265 265 266 267 268 270 272 274 274 275 275 276 276 276 277 278 279 279 278 277 277 276 275 274 273 272 272 271 271 271 272 272 273 273 272 271 270 270 270 270 270 269 269 269 269 268 268 268 268 267 267 268 268 267 267 268 268 268 268 268 268 268 267 266 266 266 266 266 267 267 267
264 264 264 264 264 263 263 263 263 263 263 263 264 264 265 266 266 267 269 270 273 274 275 275 275 275 276 276 276 277 277 276 275 274 274 272 271 271 271 271 271 271 271 272 272 272 273 273 272 271 270 270 269 269 268 268 268 268 267 267 267 267 267 267 267 267 267 267 267 268 268 268 268 268 268 267 267 266 266 266 266 266 267 267 267
263 264 265 265 264 263 263 263 263 263 264 264 264 265 266 267 268 269 271 272 273 274 274 274 275 275 275 275 275 274 273 272 271 271 271 270 270 270 270 270 270 270 271 271 272 272 272 272 272 271 270 269 268 268 267 267 267 267 267 266 266 266 266 267 267 267 267 267 267 267 268 268 268 268 268 267 267 267 267 266 266 267 267 267 267
263 264 265 265 264 264 263 263 264 264 264 265 265 266 266 268 269 271 272 273 273 274 274 274 274 273 273 272 271 270 270 269 269 268 268 269 269 269 269 269 270 271 271 270 271 271 271 271 270 270 269 268 268 267 267 267 267 266 266 266 266 266 266 266 266 267 266 267 267 267 268 268 268 268 268 268 267 267 267 267 267 267 267 267 267
263 263 264 264 265 264 264 264 264 264 265 265 266 267 268 269 271 272 272 272 272 272 272 271 271 270 269 269 268 268 267 267 266 266 266 266 266 267 268 269 270 271 271 270 269 269 269 269 269 269 268 268 268 267 267 267 266 266 266 265 265 265 265 266 266 266 266 266 267 268 268 268 268 268 268 268 267 267 267 267 267 267 267 267 266
262 262 263 263 264 264 265 265 265 266 266 266 267 268 269 270 270 270 270 270 269 269 269 268 268 267 267 266 266 266 265 265 264 264 264 264 265 266 268 268 269 269 269 269 268 268 268 268 267 267 267 267 267 266 266 266 266 265 265 265 265 265 265 265 265 266 266 266 267 268 268 268 268 268 267 267 267 267 267 267 267 267 267 266 266
261 261 262 262 262 263 263 264 264 265 266 266 267 267 268 268 267 267 267 267 266 266 266 266 266 265 265 265 264 264 263 263 263 263 263 263 265 266 267 267 268 268 268 267 267 267 267 267 266 266 266 266 266 266 265 265 265 265 265 265 265 265 265 265 265 265 266 266 267 268 268 268 268 267 267 267 267 267 267 267 267 267 267 267 266
Wind_Speed
34 29 24 21 22 23 24 26 28 30 32 32 34 34 35 35 36 37 38 38 38 39 40 40 41 42 43 45 45 45 44 45 45 46 47 49 49 48 48 48 50 50 48 47 47 46 46 45 43 43 41 39 38 38 36 34 32 31 29 28 27 25 24 22 14 6 7 11 13 15 16 17 18 19 18 17 15 12 12 10 10 11 12 12 13
37 34 29 24 22 23 24 25 26 28 30 32 34 35 35 36 37 37 38 38 38 39 40 40 40 41 43 44 45 45 44 45 45 46 47 49 49 48 48 48 50 49 47 48 48 47 46 45 44 43 41 40 39 39 38 36 34 33 32 30 30 29 27 27 22 13 9 11 14 16 17 19 20 19 16 16 14 13 11 10 10 11 12 13 14
38 37 34 29 25 23 23 24 25 27 28 31 33 34 36 37 37 37 38 38 38 39 39 40 40 41 43 43 44 44 45 46 46 47 48 48 48 48 48 49 51 50 48 49 49 48 47 45 45 44 42 40 40 39 38 37 36 35 34 33 32 31 30 29 26 21 16 13 14 17 19 20 21 18 15 15 14 12 12 11 12 13 13 14 15
37 38 36 34 31 26 24 23 24 25 27 30 32 33 35 35 36 37 37 37 37 38 39 39 40 41 42 43 44 45 46 47 48 48 49 48 48 48 47 48 50 51 52 52 51 51 50 48 47 46 44 42 41 40 39 39 38 37 35 34 32 31 30 30 28 25 20 16 14 17 19 19 19 17 14 13 12 11 11 12 12 14 14 15 15
34 35 36 36 35 32 28 25 23 24 26 28 30 32 33 34 34 35 35 36 37 37 38 39 39 41 43 44 45 46 47 48 49 49 50 48 47 46 46 47 50 51 52 53 53 54 53 53 51 48 46 45 43 43 42 41 40 38 37 35 33 31 30 31 30 26 23 20 18 16 17 18 17 16 13 10 9 10 10 11 12 13 15 15 16
33 33 33 34 35 35 33 30 27 25 24 26 27 29 30 32 33 34 34 36 36 37 37 38 39 41 43 44 45 46 46 46 48 49 49 49 47 46 45 46 48 50 51 51 52 54 56 55 53 51 50 49 48 46 45 43 42 41 39 37 35 33 32 32 32 29 26 24 21 17 17 17 17 15 12 8 8 9 8 10 12 12 13 15 17
34 33 32 31 32 34 35 34 31 29 26 25 25 26 27 29 30 32 33 35 36 36 36 37 39 41 42 42 43 44 44 45 48 48 48 48 48 47 46 45 45 47 48 49 50 53 55 55 54 53 54 54 53 50 48 46 45 43 42 40 37 36 34 33 32 30 26 23 20 18 16 15 15 15 11 8 9 10 9 8 9 10 11 14 17
32 32 32 31 31 32 33 33 33 32 30 27 25 24 25 25 27 29 31 33 35 36 37 38 39 40 41 41 42 42 43 45 46 47 47 47 46 46 46 45 44 44 44 45 47 49 52 54 55 56 57 56 55 54 52 50 47 45 43 41 39 37 36 34 31 29 25 21 19 17 13 12 13 13 11 9 10 11 9 8 9 11 12 15 17
31 31 32 32 33 34 34 34 35 34 33 32 29 27 25 24 25 26 28 31 33 35 36 37 38 39 39 40 40 40 41 44 45 46 47 46 45 45 45 46 46 45 43 43 44 46 49 51 53 55 56 56 55 54 52 51 49 47 45 43 41 39 37 35 33 31 25 19 17 15 13 12 13 13 13 13 11 9 7 8 11 12 13 15 16
28 29 30 31 33 34 35 36 37 37 36 35 34 31 28 26 24 24 25 28 30 32 33 35 36 38 37 38 38 39 41 43 44 46 47 47 46 45 45 45 46 46 46 44 44 45 46 48 49 51 53 53 53 52 50 49 48 47 47 45 44 42 40 37 36 34 27 20 17 16 14 13 15 15 14 12 11 8 8 8 10 11 12 12 13
26 25 26 28 30 32 34 35 36 37 37 37 36 35 32 29 26 25 24 25 27 29 31 33 34 35 36 36 37 39 41 42 43 45 47 48 47 45 44 44 44 45 46 46 45 45 46 46 46 46 48 50 51 51 49 49 48 46 44 44 44 43 42 40 38 37 32 24 20 19 16 14 15 16 13 11 10 9 9 8 9 10 10 10 10
26 25 25 27 28 30 31 33 34 35 35 36 36 36 34 32 30 27 25 25 25 26 29 31 32 33 34 35 37 39 40 41 42 43 45 47 48 46 43 41 41 43 45 46 46 46 45 46 45 44 46 48 49 48 47 47 46 45 42 40 41 41 40 39 37 36 36 30 23 20 19 15 15 15 13 12 11 9 8 9 10 11 11 11 11
25 25 25 27 28 29 29 30 32 33 33 34 35 35 35 33 31 29 28 26 24 24 26 28 30 32 33 34 36 38 39 40 40 42 43 45 48 47 43 41 41 42 44 45 45 44 44 45 44 44 43 44 45 46 45 44 42 41 40 37 38 38 38 37 34 32 34 32 26 23 22 18 15 15 14 13 11 9 9 10 11 12 11 11 12
23 23 23 25 27 28 28 28 29 31 32 32 33 33 33 33 32 31 29 27 25 24 25 26 28 30 32 33 35 36 38 38 38 40 41 43 46 46 44 42 41 42 43 44 44 43 44 44 45 44 42 42 43 44 43 42 39 37 37 36 36 37 36 35 32 29 29 30 27 25 22 18 15 14 14 13 11 10 10 10 11 11 11 13 14
21 21 21 23 25 27 27 27 28 29 30 31 31 31 32 32 33 32 30 28 26 25 25 25 27 28 30 32 33 35 36 36 36 38 40 41 43 43 43 43 41 40 42 43 43 44 44 45 46 45 44 43 45 45 44 42 39 37 36 36 36 36 35 35 33 30 28 27 25 23 20 18 16 14 13 12 11 10 10 11 12 13 13 16 19
20 20 20 22 23 25 26 26 27 28 29 29 29 30 30 30 31 30 29 29 28 27 26 26 26 27 29 30 32 34 34 34 34 36 37 39 40 39 40 41 41 40 40 41 43 43 44 45 46 45 45 46 46 45 45 43 40 38 37 35 34 35 34 32 29 27 26 24 22 20 19 18 17 14 11 10 9 9 10 13 15 16 15 15 17
21 20 21 22 24 25 26 25 26 26 26 27 28 29 30 30 30 28 27 28 29 28 28 27 27 27 28 29 30 33 34 33 33 34 36 37 37 37 37 38 39 39 39 40 41 42 43 44 45 45 46 46 45 44 44 43 40 38 36 33 31 31 31 29 26 24 25 25 23 22 21 19 15 13 12 11 10 10 12 15 16 14 11 9 9
22 21 22 23 25 27 27 26 26 26 25 25 26 27 29 30 29 28 26 26 27 28 28 28 28 28 28 29 30 32 34 33 32 32 34 35 36 37 36 36 37 38 37 36 38 40 41 41 43 45 45 45 45 44 43 43 41 38 36 33 30 30 30 30 29 26 23 24 24 23 20 17 15 15 15 14 11 10 13 15 15 12 11 10 8
24 23 24 25 26 28 28 27 27 27 27 27 27 27 28 29 30 28 26 25 25 26 26 26 28 28 29 30 31 31 32 32 31 31 31 32 35 37 35 34 35 35 33 33 33 36 38 38 41 44 45 45 45 42 41 43 42 39 38 36 32 31 32 33 32 29 24 20 20 20 19 17 17 18 18 17 14 13 15 16 15 14 14 16 13
26 26 27 27 28 29 29 28 28 28 29 30 29 29 29 29 30 29 28 26 25 24 24 25 26 28 28 29 30 31 31 31 30 31 30 31 34 37 36 35 34 33 32 31 31 32 35 36 38 41 42 42 42 38 37 40 43 40 38 38 36 34 33 32 31 31 27 21 17 19 21 20 19 20 20 20 18 17 17 16 15 13 15 17 15
28 29 29 29 30 31 30 29 29 30 30 30 30 30 30 31 31 30 30 29 27 25 24 23 25 26 27 28 29 30 30 31 30 30 30 31 33 36 37 36 35 33 31 32 33 33 34 35 36 36 36 37 38 36 34 35 39 40 39 39 38 35 32 31 28 28 27 23 19 20 21 20 20 20 19 20 19 17 15 13 12 12 13 16 16
30 30 31 31 31 31 31 31 31 31 31 29 29 31 32 31 31 31 30 30 29 28 26 24 23 24 25 26 28 29 30 30 30 30 31 31 33 36 38 38 38 35 33 32 33 34 35 36 37 35 33 35 37 37 34 32 34 38 39 38 34 30 29 31 28 24 24 23 21 21 21 20 20 21 20 20 17 15 13 11 11 11 12 13 14
30 31 32 32 32 32 32 32 32 31 30 29 29 32 33 32 31 31 30 29 28 27 27 25 23 22 23 24 25 26 28 29 29 30 31 31 33 36 39 40 39 37 35 33 33 35 36 37 37 36 34 35 38 37 36 33 32 35 37 35 31 27 27 30 29 25 24 24 22 21 22 23 23 23 22 19 15 12 11 10 10 10 10 11 12
30 32 33 33 33 33 32 32 32 31 31 31 31 32 33 32 30 29 29 28 25 24 25 24 22 20 21 22 23 24 25 27 28 29 30 31 32 34 36 38 39 39 38 34 33 35 36 36 37 36 34 35 36 36 36 35 32 32 33 31 29 27 27 30 30 28 25 24 23 21 21 24 25 24 20 15 11 10 9 9 9 10 11 12 13
31 32 33 34 34 34 34 34 34 33 33 32 30 31 33 31 30 29 27 26 24 23 23 22 21 20 19 20 22 24 25 26 28 29 30 31 32 33 34 36 38 40 40 36 32 33 34 35 36 35 33 33 33 34 36 35 31 30 30 29 29 29 30 30 30 29 27 25 24 21 21 24 24 20 15 12 10 9 8 9 10 11 11 13 14
32 32 33 34 34 34 34 35 35 35 35 33 32 32 32 31 30 29 26 25 24 23 22 21 20 19 19 20 22 23 23 25 28 29 29 30 31 32 34 35 35 36 38 37 33 31 32 34 34 34 32 31 31 34 35 34 31 30 31 31 31 32 32 31 31 31 29 27 25 24 24 23 19 15 13 11 9 8 8 9 10 11 11 12 14
31 32 33 34 34 33 33 34 35 36 36 35 33 32 32 31 30 29 27 25 23 22 22 21 20 18 19 21 22 22 23 25 27 27 28 29 30 31 33 34 33 33 33 32 30 28 29 31 32 33 34 33 33 34 34 33 32 32 34 34 34 34 34 33 32 30 28 27 25 25 23 20 16 13 12 10 8 7 7 8 9 10 11 12 14
32 34 36 36 35 35 34 34 34 34 35 34 33 32 32 31 29 29 29 28 25 24 22 21 22 22 22 21 20 20 21 24 27 28 29 30 30 30 30 30 30 31 31 30 29 29 29 30 31 31 33 34 32 32 33 34 33 33 35 36 36 35 34 32 29 27 27 26 24 22 20 17 15 13 11 9 8 7 6 6 8 10 10 10 10
37 39 39 38 37 36 35 34 33 33 33 33 33 33 33 32 30 32 34 34 32 31 29 27 27 27 25 24 22 18 19 25 30 32 32 31 31 31 31 29 29 31 33 33 32 30 28 29 29 29 30 30 29 31 34 34 33 34 36 37 36 35 32 30 28 27 26 24 22 20 19 16 14 12 10 9 8 5 4 5 7 9 9 9 9
39 40 39 37 37 36 34 34 33 32 32 32 32 33 35 35 33 34 36 38 38 37 36 36 37 34 30 30 30 28 28 31 31 29 29 30 31 32 33 31 30 31 32 33 33 31 28 28 28 28 28 26 26 31 34 35 34 35 35 36 37 36 33 30 29 27 25 24 22 21 19 16 14 13 11 9 7 4 4 5 6 8 8 9 10
35 36 35 34 34 34 33 34 35 34 33 33 32 32 34 36 37 37 38 39 40 40 39 39 41 39 36 35 35 35 34 32 28 26 27 28 29 31 32 31 30 32 34 34 31 29 28 26 26 28 29 27 26 29 31 31 32 32 30 29 31 33 32 30 29 27 25 24 23 20 18 17 15 13 11 8 6 4 4 5 6 7 9 10 11
34 35 36 35 35 34 34 35 34 32 32 31 30 29 29 29 32 35 37 37 37 39 39 39 40 40 39 38 36 34 33 29 26 25 26 27 28 30 32 33 32 33 38 37 31 28 27 26 25 27 28 28 27 28 29 29 29 29 27 24 23 27 31 31 29 28 27 25 23 21 20 18 16 13 10 7 6 5 5 5 6 8 10 11 12
37 38 38 37 35 34 34 34 32 30 30 29 28 29 27 22 21 26 32 34 35 36 37 38 39 40 39 39 38 36 34 30 27 27 26 27 29 30 31 33 34 35 39 37 31 28 28 27 25 26 28 28 28 29 30 31 31 31 30 27 25 27 30 31 29 28 27 24 23 22 20 18 15 12 9 7 6 5 5 5 7 9 10 10 12
40 40 39 38 36 34 33 32 30 30 29 29 28 28 28 26 24 25 25 25 26 30 33 35 36 37 38 38 37 37 35 31 28 28 28 28 28 29 31 32 34 37 41 37 30 27 27 27 26 27 28 28 27 29 30 31 32 33 31 29 28 30 30 29 28 28 26 24 23 21 19 17 14 11 9 7 5 5 4 5 7 8 8 10 12
41 40 39 38 37 35 34 32 31 30 29 28 27 27 26 26 26 25 22 19 17 20 26 30 32 33 35 35 35 35 36 33 29 28 28 28 28 29 30 28 29 33 38 36 32 30 29 28 27 28 29 29 28 29 30 30 32 33 32 30 30 32 32 30 29 28 26 24 22 20 17 15 13 10 8 6 4 4 5 6 7 8 9 11 13
38 37 36 36 35 35 34 32 31 30 29 28 28 28 27 26 25 24 25 24 22 21 23 26 29 30 30 32 33 34 34 33 31 28 27 28 29 29 29 26 25 27 30 31 30 30 29 29 29 29 31 32 31 31 31 32 34 35 35 34 34 34 33 31 29 27 25 23 21 19 17 14 11 9 6 4 4 4 6 7 8 10 11 12 14
36 35 34 35 35 34 34 34 32 32 32 30 28 27 27 27 26 26 26 25 25 25 24 23 23 23 23 26 30 31 32 32 32 30 28 28 30 31 30 27 24 24 25 26 27 28 28 28 30 31 32 32 31 31 31 33 35 36 35 35 34 33 32 30 28 26 24 23 21 18 16 13 9 7 5 4 4 5 6 8 9 10 12 12 14
37 35 34 34 34 32 32 31 30 30 29 27 26 25 26 25 25 25 24 23 23 24 25 23 20 17 17 19 22 25 27 28 29 29 28 28 29 30 29 26 24 23 24 25 27 29 28 28 29 31 31 31 31 31 32 33 36 37 35 34 32 30 29 27 26 24 23 22 20 18 15 11 8 6 4 3 4 5 7 8 9 10 11 12 14
34 34 34 34 33 31 29 27 25 25 24 24 24 25 26 25 24 22 21 20 20 20 21 22 20 18 18 18 18 20 22 22 22 23 24 25 27 27 27 25 24 24 24 26 29 30 29 28 30 31 31 31 32 32 33 36 37 37 35 33 31 29 28 27 26 25 23 22 19 16 13 10 8 5 3 3 4 6 7 9 10 10 11 13 14
32 31 32 32 31 29 28 27 26 25 25 25 24 24 23 23 22 21 19 19 19 19 19 18 17 17 18 17 18 19 20 19 19 20 21 22 24 25 25 25 24 24 24 26 29 30 29 30 31 31 31 33 33 34 36 38 38 36 34 33 32 30 29 28 26 25 23 21 18 15 13 10 7 4 2 3 4 6 8 10 11 12 13 15 16
33 30 28 27 27 26 25 24 24 23 23 22 22 22 22 22 22 21 20 18 17 17 18 18 16 15 16 18 21 23 22 20 20 21 22 23 24 25 25 24 24 24 25 28 30 31 31 31 32 33 33 34 34 35 38 39 38 36 33 32 31 30 28 26 24 23 21 19 17 15 12 9 6 3 2 2 4 7 9 11 13 14 16 17 18
32 29 27 26 25 24 23 23 23 23 23 22 21 20 21 21 21 21 21 20 19 18 18 18 19 19 18 20 24 27 25 22 21 22 23 24 25 24 23 22 22 25 28 31 32 33 34 34 34 35 35 35 35 37 39 38 37 35 34 33 31 29 27 25 23 21 20 18 16 14 11 8 5 3 2 4 6 8 11 13 15 15 16 17 18
32 30 28 27 25 23 21 22 22 22 22 23 22 22 22 21 20 20 19 18 20 20 18 17 18 19 20 22 25 26 25 22 21 22 22 22 22 21 19 20 22 25 29 31 33 36 37 36 36 36 36 36 37 39 39 38 35 34 33 31 29 27 25 23 22 21 20 18 16 13 11 8 5 3 4 5 7 10 11 13 15 16 15 17 18
32 29 28 27 25 22 21 21 20 20 20 21 21 22 22 21 21 21 19 18 18 19 18 17 15 14 16 19 21 22 21 19 19 20 19 19 19 18 18 20 23 25 28 30 33 36 38 37 36 35 35 36 37 37 35 34 32 31 31 29 27 25 23 21 20 20 19 17 15 13 11 8 6 5 5 6 8 10 12 14 15 16 16 16 17
29 27 26 24 22 21 20 19 18 18 19 20 20 20 20 20 21 20 20 20 20 19 17 16 15 13 14 15 16 17 17 16 16 17 17 18 18 18 20 23 25 27 30 32 34 36 37 36 35 36 36 36 34 32 30 29 27 26 26 25 24 23 21 19 18 17 17 16 15 13 11 9 6 5 5 6 8 10 13 15 16 16 16 17 17
26 26 24 22 20 18 17 17 16 16 16 16 17 17 18 19 19 19 19 20 21 18 15 14 14 14 14 14 13 12 11 13 16 17 18 19 20 21 23 25 27 30 32 33 34 35 34 34 36 38 38 36 32 29 28 26 24 23 21 19 18 18 17 17 17 16 15 15 15 13 11 8 6 5 5 8 10 12 14 16 16 16 17 18 18
26 25 23 20 17 15 13 12 13 15 15 15 16 16 16 16 17 18 18 19 19 16 13 11 11 11 10 9 8 9 12 16 19 20 21 22 23 24 26 28 30 31 32 32 33 34 34 35 37 37 36 34 31 29 27 25 22 21 19 18 17 18 17 17 17 16 15 15 14 12 10 7 5 4 6 9 12 14 16 17 16 16 18 19 19
25 24 23 20 15 14 13 11 11 13 13 13 14 15 16 17 17 17 17 16 14 11 8 7 7 8 9 10 12 15 18 20 21 22 23 23 24 26 29 30 31 33 34 34 35 35 35 35 34 33 32 31 29 27 25 23 21 21 20 18 18 18 17 17 17 15 14 14 13 11 8 5 4 5 8 11 13 14 16 16 16 17 19 19 20
24 23 23 21 17 13 12 12 13 13 14 14 15 16 16 16 15 12 9 7 4 4 6 8 10 12 14 16 17 19 20 21 22 22 22 23 24 27 31 32 33 35 37 37 37 35 34 33 31 29 28 27 25 24 23 22 20 20 19 18 17 17 16 15 15 14 14 13 12 9 6 4 5 7 10 12 13 14 15 16 16 18 18 19 20
24 23 22 22 20 18 15 12 10 10 11 11 10 9 8 5 3 3 4 6 9 10 11 12 13 14 16 18 19 19 20 22 23 23 24 25 27 30 34 36 38 39 40 40 38 36 33 31 29 27 26 25 23 22 21 20 19 18 17 16 16 15 14 14 13 12 12 12 11 8 5 4 7 10 12 14 14 14 15 15 16 18 19 20 21
24 24 23 22 22 22 22 20 18 16 15 13 12 12 11 11 12 13 13 13 14 14 15 16 16 17 18 18 19 19 20 23 24 25 27 30 33 36 39 41 41 42 41 39 37 35 32 30 28 27 25 24 22 21 19 18 17 16 15 15 14 13 12 12 12 11 11 11 9 6 5 6 10 13 14 14 13 13 15 16 17 19 21 21 21
Wind_Direction
3 354 342 325 305 291 281 272 264 258 254 250 247 245 244 243 241 240 237 234 231 229 227 226 224 223 222 221 221 221 221 220 220 219 218 218 217 216 216 215 215 215 215 215 215 216 216 215 215 214 213 211 210 210 209 208 208 208 209 208 205 205 202 196 198 196 186 193 198 204 214 223 234 247 260 266 269 274 283 296 313 321 325 326 329
4 1 355 344 326 310 297 285 274 266 260 255 252 249 247 246 244 242 239 236 233 231 228 226 225 224 223 222 220 219 220 220 220 219 219 218 217 216 215 214 214 213 213 213 213 214 214 214 214 213 212 211 210 209 208 207 207 207 207 207 206 205 204 201 201 204 204 208 214 222 229 237 248 256 262 267 277 288 292 301 315 320 325 327 327
6 6 4 357 347 332 316 301 287 275 266 261 257 254 251 249 247 244 241 239 236 233 230 227 226 224 223 222 220 219 219 219 220 220 220 219 218 216 215 215 214 212 211 213 212 212 212 212 212 212 210 209 208 208 208 207 207 207 207 207 206 206 205 204 204 206 208 212 221 229 235 242 249 253 260 271 282 293 298 306 314 317 322 325 326
7 8 7 5 2 353 339 323 306 289 277 270 265 261 257 253 249 247 244 241 238 235 232 229 226 224 222 221 219 219 219 218 218 219 220 220 219 218 217 216 215 213 213 213 212 211 211 210 211 210 208 206 206 206 207 207 207 207 206 206 206 207 206 206 208 209 210 212 220 230 235 238 243 250 262 273 280 289 300 308 312 314 318 322 325
6 7 7 7 7 3 356 345 328 309 295 285 276 271 265 259 254 250 246 243 240 237 234 229 226 224 222 221 220 220 219 218 217 218 219 219 219 220 219 218 217 216 215 214 213 212 212 211 210 209 207 205 204 205 205 205 206 205 205 206 206 206 206 207 209 210 210 211 213 221 230 236 244 255 261 265 273 283 295 304 308 311 314 316 316
5 5 5 5 5 4 1 356 346 332 317 304 293 284 275 266 260 254 249 246 242 239 235 231 228 226 225 224 222 221 220 218 218 218 218 217 218 219 220 220 219 218 216 216 215 214 213 212 211 209 208 206 205 205 205 204 204 203 204 205 205 204 204 206 208 207 209 214 214 217 226 236 247 256 253 245 250 261 277 293 298 297 296 296 295
3 3 2 2 1 1 360 358 355 348 338 326 314 301 288 277 267 260 255 249 244 240 237 234 232 230 229 227 225 223 221 220 219 219 218 217 216 217 218 220 221 220 219 217 216 216 215 213 211 210 210 210 209 207 205 203 203 203 204 204 203 201 201 202 203 203 205 210 215 219 225 232 241 249 248 236 233 242 249 265 276 274 266 267 271
2 1 360 359 357 356 356 355 355 354 351 344 334 321 307 293 280 270 261 252 247 243 240 238 236 234 232 230 227 225 223 221 220 219 218 217 216 216 216 218 220 221 221 220 218 217 216 214 212 213 213 213 213 211 209 206 203 202 204 204 201 199 198 198 198 198 199 202 208 213 216 220 226 232 235 223 221 231 231 236 254 262 262 263 266
360 359 358 356 354 353 353 354 354 354 354 353 348 339 327 313 298 283 269 258 252 247 243 239 237 235 233 231 229 226 224 223 222 219 218 216 216 216 216 216 218 219 221 222 221 219 218 215 214 214 215 214 214 214 213 211 208 205 203 202 199 199 199 198 196 195 193 193 199 202 203 210 211 211 214 211 210 217 216 227 248 260 265 267 268
356 356 355 354 353 352 352 353 353 354 354 353 351 347 341 330 315 299 283 269 260 253 247 241 238 236 233 231 229 227 226 226 225 223 220 218 216 215 215 216 217 217 218 219 221 221 220 218 216 215 215 213 212 212 212 212 212 211 209 206 203 201 198 197 197 196 191 189 191 191 193 205 207 203 205 205 205 211 215 229 250 259 264 267 267
349 349 349 350 351 352 351 351 352 352 352 351 350 348 345 340 329 315 300 285 272 261 252 245 241 238 236 233 231 229 230 230 228 226 224 222 219 216 216 217 217 217 217 216 218 219 219 219 218 216 214 212 210 210 210 210 210 211 212 212 210 207 202 199 197 195 194 193 192 191 192 198 202 200 199 200 201 206 216 233 249 255 261 267 272
342 341 342 344 347 349 349 349 349 349 350 350 349 348 346 343 337 328 315 300 286 272 260 252 246 242 239 236 234 233 234 233 231 229 227 224 221 219 218 218 218 219 218 217 217 216 216 218 218 216 215 213 210 207 207 208 208 208 209 210 211 211 212 211 208 203 200 197 194 197 197 194 194 194 191 190 195 205 223 236 244 249 256 263 269
335 335 337 339 342 344 344 345 345 345 346 347 347 347 346 342 338 332 324 313 299 282 268 259 252 247 242 239 238 238 238 237 234 231 229 226 223 221 219 219 220 221 220 219 217 215 215 214 214 215 216 214 211 208 204 203 204 205 206 207 209 211 215 217 219 218 212 204 198 199 200 194 191 190 186 185 191 208 226 236 244 250 253 259 267
327 328 330 333 337 338 339 339 339 339 341 343 345 346 345 342 338 334 328 321 308 293 280 268 259 252 247 244 243 242 241 240 236 233 231 227 224 222 221 221 223 223 222 220 218 216 214 213 212 212 213 212 211 207 203 200 198 199 201 204 207 210 213 215 216 218 217 212 207 207 204 197 189 183 183 188 198 215 229 239 248 250 252 263 274
320 321 322 326 330 332 332 332 332 333 335 337 339 341 342 341 339 336 330 322 312 301 289 278 268 260 254 249 247 247 245 242 239 236 232 228 225 222 221 222 224 225 224 222 220 217 215 214 212 211 210 210 210 207 203 199 195 194 196 200 204 207 209 211 211 210 211 212 213 211 204 198 194 187 187 196 211 228 236 239 245 253 265 277 283
313 314 316 319 324 326 326 325 325 327 329 331 332 334 336 336 336 335 330 324 317 307 296 285 276 268 261 254 250 250 249 245 241 238 233 229 224 221 221 222 224 225 225 222 221 219 217 215 213 211 210 211 209 207 204 199 194 193 194 196 200 203 205 207 206 205 207 208 209 209 206 206 205 199 194 199 213 227 231 235 247 262 275 284 287
307 309 312 315 318 320 320 319 319 321 324 325 325 326 327 329 331 332 328 323 319 312 303 294 285 275 267 259 253 251 251 247 243 239 234 228 222 219 220 221 223 224 225 222 220 219 218 217 214 211 211 210 208 205 203 199 194 193 192 192 193 197 201 202 200 201 205 207 210 215 218 217 211 205 207 211 216 225 232 239 251 264 275 281 282
307 308 310 312 315 317 316 314 313 315 317 317 318 319 320 321 324 325 322 317 313 309 305 298 290 281 272 264 259 255 253 250 245 240 235 227 221 219 219 220 221 223 223 222 220 218 217 217 215 212 211 209 206 203 201 198 195 192 190 188 189 193 197 198 198 199 203 208 214 219 220 217 212 211 214 212 210 220 232 242 252 261 268 266 260
305 306 307 309 310 312 312 310 310 311 312 312 312 313 314 315 316 317 314 309 306 304 301 294 288 284 276 269 263 258 256 253 247 241 234 225 220 220 219 218 220 221 220 219 219 217 216 216 215 214 212 208 204 199 198 198 196 193 189 187 188 193 197 199 199 197 196 201 208 211 211 211 211 211 213 213 212 221 235 249 260 262 260 258 252
301 303 303 304 306 308 309 308 307 308 309 308 308 309 309 311 311 310 307 303 299 297 293 287 283 282 278 272 265 259 256 252 248 242 234 223 219 219 219 217 218 218 216 215 214 213 213 214 213 212 210 207 202 196 195 199 198 194 190 189 192 196 199 200 199 197 194 194 199 204 206 208 210 214 220 223 225 234 247 259 265 259 250 250 248
298 299 299 300 302 303 304 304 304 305 305 304 304 305 305 306 306 304 302 300 295 291 288 283 278 277 276 272 266 261 256 252 247 243 235 225 219 219 219 219 218 215 213 213 212 210 209 208 208 206 203 202 199 194 194 199 199 197 194 195 199 201 198 196 194 194 195 196 198 203 204 208 216 222 227 231 235 247 258 260 260 255 246 245 244
296 296 296 297 298 299 300 300 300 302 301 301 301 301 302 302 301 299 297 294 291 287 285 282 276 274 272 268 263 260 257 252 246 242 236 228 222 220 220 220 219 215 212 212 211 209 207 206 204 201 196 196 197 196 195 196 198 200 200 199 200 201 197 193 188 186 191 194 196 201 205 212 219 221 227 237 246 254 258 257 258 259 254 250 248
296 295 294 294 295 296 296 296 297 297 297 297 298 298 298 297 295 293 290 287 284 282 281 279 274 272 271 268 262 258 255 251 245 240 236 230 225 224 224 223 220 216 213 213 212 209 207 206 203 197 192 193 195 195 195 194 196 200 201 199 196 194 192 189 185 183 188 192 197 204 210 214 217 222 232 241 248 251 254 262 270 270 267 262 258
294 292 292 292 293 293 293 293 293 292 291 294 295 295 294 292 290 287 283 279 275 272 273 273 270 267 269 270 268 263 258 253 247 242 237 233 228 227 226 224 220 218 217 216 216 212 208 205 202 196 191 192 193 192 192 193 194 196 196 192 188 186 186 186 186 186 188 194 201 207 211 215 219 227 236 240 243 249 257 270 279 277 273 273 272
293 290 290 289 289 290 291 290 289 288 289 291 291 290 290 289 286 283 279 273 267 264 265 264 261 259 261 263 265 265 260 254 248 243 238 234 230 230 230 226 219 217 217 217 216 212 208 204 200 194 192 192 192 191 193 194 191 189 188 185 183 185 188 187 187 188 191 198 204 208 213 220 224 230 235 232 234 248 261 272 279 282 281 283 286
291 289 288 287 287 288 288 288 288 288 288 288 286 285 284 282 280 278 275 269 263 261 260 258 255 252 251 252 253 255 252 247 244 240 235 231 229 228 231 229 221 214 215 217 213 208 203 199 195 192 192 193 192 191 194 194 189 183 182 184 185 188 191 190 187 189 195 200 204 211 219 225 227 225 224 226 234 250 266 279 285 289 297 304 304
292 290 289 288 287 286 285 285 286 286 287 286 285 282 279 276 273 271 270 267 262 259 257 255 251 248 248 249 247 244 241 237 235 233 229 228 227 225 227 230 223 211 209 209 205 199 196 193 192 192 193 193 193 192 192 192 189 184 181 184 188 191 194 194 191 191 197 201 206 215 222 223 219 216 218 226 240 253 268 284 291 296 309 316 309
295 292 290 288 287 284 283 282 282 282 283 282 280 279 277 274 270 266 264 262 260 258 255 252 250 248 248 249 247 242 237 231 229 229 227 225 224 221 222 226 221 207 200 198 196 193 191 190 190 191 192 192 191 188 186 187 188 184 179 180 187 191 193 193 193 196 203 208 212 217 217 213 211 212 217 228 240 252 269 284 291 300 312 315 300
295 291 288 286 284 282 281 280 278 277 277 277 275 272 271 270 270 269 268 264 260 259 258 257 256 254 250 249 245 238 235 235 236 235 232 228 225 220 217 218 213 204 196 191 188 186 185 185 186 188 190 189 183 177 177 179 179 177 176 178 183 186 186 188 194 202 208 211 212 212 209 207 209 212 217 228 236 248 271 281 292 303 307 299 282
291 288 285 283 283 283 282 281 279 277 276 276 276 274 272 269 267 267 269 269 265 261 258 257 258 258 255 252 249 244 244 248 248 243 235 228 225 222 217 213 209 201 192 185 181 181 182 183 186 187 188 187 181 175 175 174 171 171 172 176 180 183 184 191 200 206 209 210 209 207 205 205 208 211 216 225 233 244 260 275 294 300 293 283 276
288 285 284 283 283 284 284 283 282 281 279 278 278 279 279 277 272 268 267 268 268 265 260 257 257 257 254 253 253 252 251 251 250 245 234 224 221 221 217 214 209 197 185 180 179 183 185 184 186 188 187 187 187 182 177 175 173 170 169 172 177 179 182 192 202 206 206 206 204 203 202 203 206 209 210 216 230 250 268 283 294 290 281 277 273
284 283 284 284 284 285 284 283 283 282 281 280 279 279 279 280 279 275 271 268 267 267 263 258 257 255 253 252 253 252 249 245 240 237 230 220 219 219 216 215 211 194 182 180 182 186 189 188 187 188 187 188 188 185 180 178 175 171 168 168 172 175 181 191 199 202 203 202 199 199 200 201 203 203 200 203 221 247 273 287 291 288 282 275 271
282 281 282 283 283 282 281 281 280 279 278 278 278 277 276 277 280 282 280 276 272 269 265 259 256 254 252 251 250 249 248 242 235 231 225 217 217 217 214 216 211 192 180 182 186 188 189 190 189 189 189 190 189 185 182 180 178 177 177 176 175 179 184 190 196 199 200 200 198 198 199 199 198 194 192 199 217 237 259 277 286 288 283 277 277
281 280 280 281 280 279 279 279 278 277 276 274 273 273 272 269 268 271 276 278 276 273 268 262 257 254 253 252 249 247 245 240 232 228 224 218 215 213 212 215 211 195 185 186 189 188 188 189 190 189 188 190 189 186 184 183 181 181 182 179 177 179 181 185 191 195 195 194 195 197 196 195 192 188 188 197 212 228 249 270 280 279 275 277 282
282 280 279 279 278 277 277 276 275 276 276 274 273 272 269 265 263 263 263 265 267 268 267 265 261 257 254 252 250 247 244 239 231 226 222 219 216 211 209 212 211 199 191 189 189 189 189 189 188 187 186 188 189 189 188 186 184 184 181 177 175 177 178 182 187 190 190 191 193 193 192 189 187 185 188 198 214 234 256 271 275 274 273 276 282
284 282 280 279 277 275 275 274 272 273 273 273 273 272 270 270 272 274 275 273 269 265 264 262 261 259 256 252 249 246 244 239 231 223 219 218 215 209 205 208 207 201 196 192 188 188 189 189 187 185 185 187 189 190 189 189 188 187 184 180 177 177 179 182 185 186 187 190 190 189 187 185 181 179 188 213 243 260 272 281 282 279 275 274 279
286 283 282 280 277 274 273 272 271 270 271 270 268 267 267 267 267 268 270 270 270 270 269 263 256 251 249 248 247 244 242 239 232 222 216 216 215 210 208 209 207 201 197 192 186 184 186 188 187 185 186 187 188 188 189 190 188 185 181 179 179 179 180 183 185 185 186 187 186 185 183 178 174 178 192 223 254 270 281 284 279 276 274 275 282
287 284 282 281 279 275 271 269 267 266 267 267 266 265 266 266 263 259 258 257 257 260 263 262 258 247 238 239 242 241 241 240 232 221 212 211 213 213 211 210 208 203 197 191 184 182 183 185 186 186 186 186 186 186 187 187 184 180 177 177 179 179 180 180 182 184 186 185 183 181 177 171 171 182 199 232 260 275 285 284 274 268 275 282 285
288 286 285 285 284 282 278 275 274 273 272 271 269 267 266 264 262 261 262 264 261 257 255 253 252 248 242 237 233 231 232 231 224 214 206 205 210 213 211 208 206 202 196 187 182 181 181 181 182 183 184 184 184 185 185 182 179 177 176 176 175 175 177 179 181 183 184 182 178 175 170 168 171 180 204 249 273 285 290 286 274 268 276 285 285
289 287 284 283 282 281 279 277 275 272 269 266 265 264 263 261 258 257 259 262 264 265 265 259 250 241 236 230 224 223 223 221 215 208 201 201 208 212 210 208 205 200 190 181 177 178 178 176 177 180 182 184 184 184 182 179 176 175 176 175 175 176 179 181 183 182 179 176 174 170 167 168 171 180 214 264 285 290 286 279 274 273 279 284 284
290 286 281 279 279 278 278 275 270 266 263 260 258 257 257 257 256 256 256 256 258 262 268 271 267 256 240 230 228 227 223 216 212 207 201 201 207 211 210 209 206 195 182 175 173 174 173 171 174 178 182 184 184 182 179 176 174 173 175 176 177 178 179 180 181 179 175 173 172 169 167 167 168 175 216 276 284 279 275 275 278 282 283 284 285
291 286 281 278 277 275 273 272 272 273 274 273 272 270 267 264 259 255 254 255 258 263 266 266 263 258 249 240 236 230 223 217 212 207 202 203 207 210 211 209 201 189 179 174 172 171 169 169 174 180 183 183 181 177 175 174 174 174 176 177 178 179 178 177 177 176 174 173 173 170 167 164 166 181 239 273 272 272 276 282 287 288 285 284 287
292 287 282 277 273 267 264 265 267 269 270 273 275 276 277 278 277 273 267 258 254 255 259 260 254 243 237 238 238 234 227 218 210 206 205 205 205 206 204 198 189 180 175 172 170 170 170 172 176 182 185 184 181 177 176 175 176 176 177 177 179 179 177 176 176 176 176 176 175 170 166 165 173 208 252 269 273 279 286 289 289 287 284 284 289
294 288 282 277 271 265 261 261 261 262 264 267 270 271 273 275 277 279 281 277 265 254 251 255 253 239 229 232 235 233 228 218 207 203 201 197 192 189 184 177 171 165 163 164 167 171 175 176 177 178 179 177 176 175 175 175 176 177 177 177 177 178 177 178 179 178 178 178 175 171 170 175 191 225 255 275 284 287 289 290 289 288 286 286 290
297 292 287 279 272 265 261 259 258 260 262 264 266 268 268 269 270 271 273 276 273 262 248 244 246 242 234 230 229 230 226 210 194 187 182 174 168 164 162 160 159 158 160 164 169 173 176 177 173 170 168 167 167 169 170 171 174 176 177 177 177 177 178 179 179 179 180 180 176 173 177 188 210 237 265 289 296 292 290 291 289 285 284 287 291
307 302 295 286 276 266 260 258 257 259 261 261 262 264 264 264 267 267 266 267 268 262 248 238 236 233 230 225 222 219 203 175 161 158 156 152 149 150 153 155 157 159 162 166 169 171 172 172 169 166 163 162 162 164 166 168 169 170 171 172 173 173 175 176 178 181 182 181 179 181 186 200 225 252 280 299 302 297 293 290 284 280 284 292 296
319 315 311 302 286 269 261 260 257 258 260 259 260 264 267 266 264 261 260 263 265 259 246 234 226 218 209 200 186 166 149 141 139 139 142 145 148 153 157 157 157 158 159 161 163 164 164 163 163 161 159 157 158 160 162 163 163 163 163 165 166 170 174 178 180 184 185 184 185 191 197 210 239 273 294 302 302 297 291 287 283 285 293 298 298
331 329 328 323 303 274 263 263 261 260 264 264 263 266 269 269 267 263 260 261 260 249 224 199 180 165 149 139 136 134 133 132 132 134 139 147 153 156 157 157 157 156 155 154 154 155 155 155 156 155 154 155 156 158 158 160 161 161 162 164 167 172 177 180 182 186 190 192 194 199 206 225 264 290 299 301 298 291 288 288 290 296 300 299 297
341 340 342 343 334 308 285 274 265 261 263 263 264 266 266 265 266 265 259 249 230 182 152 139 132 129 126 125 126 128 129 129 130 131 136 141 147 151 154 154 153 152 149 146 146 147 147 147 149 150 151 153 154 155 157 159 160 160 162 166 170 174 178 182 185 191 195 196 199 204 217 249 284 296 298 296 292 288 289 293 299 302 301 297 296
351 351 352 354 354 351 343 332 314 298 290 284 282 287 294 306 340 27 70 87 89 95 104 109 111 114 119 122 123 124 125 127 129 132 135 138 142 147 148 147 145 144 143 141 141 142 142 144 145 147 148 150 152 154 156 158 158 160 164 167 172 178 183 185 190 196 198 197 201 212 235 272 292 295 292 290 289 289 293 298 302 303 298 294 295
359 360 0 0 2 5 7 7 5 3 4 8 13 19 28 36 45 56 67 74 80 88 97 102 105 109 115 118 118 118 122 126 129 132 135 138 140 142 142 141 139 139 138 138 138 139 140 142 143 145 146 148 150 152 154 156 158 162 166 169 173 180 187 190 194 200 201 199 205 222 254 283 291 289 286 286 291 296 300 303 304 302 297 293 295